Regional Weather Roundup
Issued by NWS Kansas City/Pleasant Hill, MO

Home | Current Version | Previous Version | Graphics & Text | Print | Product List | Glossary Off
Versions: 1 2 3 4 5 6 7 8 9 10 11 12 13 14 15 16 17 18 19 20 21 22 23 24 25 26 27 28

000
ASUS43 KEAX 272310
RWREAX

WEATHER ROUNDUP FOR EASTERN KANSAS AND NORTHWEST MISSOURI
NATIONAL WEATHER SERVICE KANSAS CITY/PLEASANT HILL MO
500 PM CST MON FEB 27 2017

KSZ040-057-103>105-MOZ028-029-037-043-280000-
...KANSAS CITY METROPOLITAN AREA...

CITY           SKY/WX    TMP DP  RH WIND       PRES   REMARKS
K.C. INTL      PTSUNNY   62  35  36 SE13      29.79F
K.C. DOWNTOWN  PTSUNNY   65  41  41 SE15G25   29.80F
LEES SUMMIT    SUNNY     63  39  41 S20       29.82F
OLATHE - IXD   PTSUNNY   63  43  48 SE17G29   29.79F
OLATHE - OJC   CLOUDY    62  43  49 S14G22    29.79F
LAWRENCE       PTSUNNY   64  44  48 SE16      29.77F

$$

MOZ001>008-011>017-020>025-030>033-038>040-044>046-053-054-280000-
...NORTHERN AND CENTRAL MISSOURI...

CITY           SKY/WX    TMP DP  RH WIND       PRES   REMARKS
ST. JOSEPH     PTSUNNY   60  34  37 SE20      29.79F
MOSBY          CLOUDY    61  32  33 SE8G17    29.82F
WARRENSBURG    CLOUDY    63  36  36 SE12G18   29.84R
WHITEMAN AFB   PTSUNNY   63  38  39 S16G23    29.83F
CLINTON        MOSUNNY   63  43  48 S15       29.85F
SEDALIA        PTSUNNY   65  35  33 S16       29.87F
WARSAW         NOT AVBL
CHILLICOTHE      N/A     60  30  32 SE9G21    29.86F
KIRKSVILLE     MOSUNNY   58  29  33 SE13      29.89F

$$

MOZ041-047>049-056>058-063>065-088>090-097-280000-
...EASTERN AND SOUTHERN MISSOURI...

CITY           SKY/WX    TMP DP  RH WIND       PRES   REMARKS
ST. LOUIS INTL MOCLDY    64  39  39 SE10      29.99F
SPIRIT OF STL  MOCLDY    65  36  34 SE7       29.97F
COLUMBIA       CLOUDY    64  33  31 SE12G20   29.90F
JEFFERSON CITY CLOUDY    65  35  33 SE12      29.90F
ROLLA          CLOUDY    63  36  36 MISG      29.93F
OSAGE BEACH    CLOUDY    63  39  41 SE9G16    29.91F
SPRINGFIELD    MOSUNNY   66  45  46 SE18G29   29.88F
BRANSON        PTSUNNY   63  48  59 SE12      29.94S
JOPLIN         MOSUNNY   67  53  61 S18G28    29.85F
WEST PLAINS    CLOUDY    61  47  59 S12       30.00S

$$

IAZ060-094-KSZ022-034>040-054-083-096-NEZ052-066-093-280000-
...KANSAS...SOUTHEAST NEBRASKA AND IOWA...

CITY           SKY/WX    TMP DP  RH WIND       PRES   REMARKS
TOPEKA         SUNNY     64  46  52 S16G24    29.75F
MANHATTAN      SUNNY     63  46  54 S16       29.73R
EMPORIA        CLOUDY    61  46  57 S16       29.76S
CHANUTE        MOSUNNY   66  50  56 S17G26    29.80F
WICHITA        CLOUDY    61  49  64 S12       29.73F
OMAHA          PTSUNNY   54  23  30 SE15      29.77S
LINCOLN        MOSUNNY   54  36  50 SE13      29.76S
FALLS CITY     MOSUNNY   58  35  42 SE13      29.75F
LAMONI         PTSUNNY   55  26  32 SE12G18   29.82F
DES MOINES     CLOUDY    54  24  31 SE13      29.86F

$$





USA.gov is the U.S. government's official web portal to all federal, state and local government web resources and services.